Wind_Speed
31 31 32 31 31 31 32 31 30 30 30 29 27 26 25 25 25 25 24 24 25 25 25 25 25 25 25 25 24 24 25 25 25 25 26 26 26 27 27 27 28 28 28 29 29 29 29 29 29 29 29 29 28 28 28 28 28 28 28 29 29 30 29 29 29 28 28 27 27 27 27 28 28 29 29 29 29 29 29 29 28 28 28 29 31 31
29 29 29 28 28 29 30 29 27 26 25 24 22 21 20 20 21 21 20 21 21 22 23 24 24 24 24 24 23 23 23 23 23 23 24 24 24 25 25 25 26 26 26 27 27 28 28 29 29 29 29 29 28 28 28 27 27 27 27 27 28 28 28 28 28 28 28 28 28 28 28 28 29 29 29 29 29 29 30 29 28 27 27 28 29 30
29 29 28 27 27 28 29 29 27 25 24 23 22 20 20 21 21 21 22 22 22 23 23 23 24 23 23 22 21 21 21 21 21 21 22 22 22 23 23 23 23 23 24 24 25 26 26 27 28 28 28 28 28 28 27 27 27 26 26 27 27 27 28 28 28 28 28 28 28 29 29 29 29 29 30 29 30 30 30 30 30 29 28 28 29 30
29 29 28 27 27 28 28 28 27 26 24 24 23 23 23 24 25 25 25 25 25 25 24 23 23 23 22 21 20 20 20 20 20 20 21 21 21 22 22 22 22 22 22 23 23 24 24 25 26 27 27 27 27 27 27 26 26 26 26 26 26 27 27 27 28 28 28 28 28 28 28 28 28 29 29 29 30 30 30 31 31 31 30 30 30 31
29 29 29 29 29 29 29 28 28 27 27 27 27 27 27 28 28 29 28 27 27 26 25 24 23 23 22 22 21 21 20 21 21 21 21 21 22 22 22 22 22 22 22 23 23 23 23 24 24 25 26 26 26 26 26 26 26 26 26 26 26 26 27 27 27 28 28 28 28 28 27 27 27 27 28 29 29 29 30 30 31 31 31 31 31 32
31 30 30 30 30 30 30 30 29 29 30 30 30 30 31 31 31 31 30 29 28 27 26 25 24 23 23 23 23 22 22 22 22 22 22 22 22 22 22 22 22 22 22 22 23 23 23 23 23 24 24 24 24 24 25 25 26 26 26 26 26 26 26 27 27 27 27 27 27 27 27 27 27 27 28 28 29 29 29 30 30 31 31 31 32 32
33 32 31 31 31 32 32 32 31 31 30 31 32 32 33 33 33 32 31 30 29 28 27 26 25 25 24 24 24 24 24 24 23 23 22 22 21 21 21 21 21 21 21 21 21 22 22 22 22 22 22 22 23 23 24 24 25 25 25 26 26 26 26 26 26 26 27 26 26 27 27 27 27 27 28 28 29 29 29 29 30 30 31 31 32 33
35 34 32 32 33 33 33 32 32 31 30 31 31 33 34 34 33 33 32 31 30 29 29 28 28 27 26 26 26 26 26 25 25 24 23 22 21 21 20 19 19 19 19 19 19 20 20 21 21 21 21 22 22 23 23 23 23 24 24 24 24 25 25 25 26 26 26 26 26 26 27 27 27 27 28 28 28 27 28 28 30 31 32 33 34 34
35 35 34 33 33 33 33 33 32 31 31 31 31 32 32 33 33 32 32 32 31 30 30 30 30 29 28 27 27 27 27 27 26 26 25 23 22 21 20 19 18 18 18 18 18 18 18 19 19 20 21 21 22 22 23 23 23 23 23 24 24 24 25 25 25 26 26 26 26 26 26 26 26 26 26 26 26 27 27 29 30 32 33 34 35 35
35 35 35 34 33 33 33 35 35 34 33 32 33 33 33 33 33 32 32 32 32 31 30 30 30 30 30 29 29 28 28 28 27 26 25 24 23 22 20 20 19 18 17 17 17 17 17 17 18 19 19 20 21 21 22 22 23 23 24 24 25 25 25 26 26 26 26 26 26 25 25 25 25 25 26 26 27 27 28 30 31 32 33 34 35 35
35 35 35 36 35 34 33 35 36 36 34 34 33 34 33 33 33 32 32 33 33 33 31 31 30 31 31 31 30 30 29 29 28 27 25 24 23 21 20 19 18 17 16 16 15 16 16 16 17 17 18 18 19 20 21 21 22 23 23 24 25 25 26 26 27 26 26 26 26 25 25 25 26 26 27 27 28 28 29 29 30 31 31 32 33 33
35 36 36 35 35 35 34 35 36 35 33 32 32 33 34 33 32 31 31 32 33 33 32 32 31 31 31 32 31 31 30 30 29 28 26 23 21 20 18 17 15 14 14 14 14 14 15 15 15 16 16 17 18 18 19 20 20 21 22 22 23 24 25 25 26 26 27 26 26 27 26 27 27 27 27 27 27 28 28 28 29 29 30 30 30 30
36 36 36 35 35 35 35 34 33 32 31 30 30 31 32 32 31 30 31 32 33 33 33 32 32 32 32 31 31 31 31 31 30 28 26 23 20 18 17 16 15 14 13 13 13 13 13 14 14 15 15 16 16 17 17 18 18 19 20 20 21 22 23 24 24 25 26 26 26 27 27 27 27 27 27 27 27 28 28 29 29 29 29 29 29 29
36 35 35 35 35 35 33 33 33 32 31 31 31 31 31 31 31 31 32 34 34 34 33 33 33 33 33 32 31 30 30 30 29 28 25 23 20 18 17 17 16 15 14 15 14 14 13 13 14 14 14 14 14 15 15 15 16 17 18 18 19 20 21 22 23 24 24 25 26 26 27 27 27 27 27 27 28 28 29 29 29 29 28 28 28 28
33 33 33 33 33 32 32 32 32 33 33 34 34 34 34 34 34 33 33 34 34 34 32 32 33 34 33 33 31 29 29 28 28 27 26 23 20 18 18 19 18 18 17 17 17 16 14 15 15 15 14 14 14 14 14 15 15 16 17 17 18 19 20 21 22 23 24 25 25 26 27 27 27 27 27 27 28 28 29 28 28 27 27 28 27 28
30 30 30 31 31 31 31 32 33 34 36 36 36 35 34 34 34 34 33 33 33 32 31 31 32 33 34 33 30 28 26 26 26 27 27 27 24 21 21 22 22 21 21 20 20 19 17 17 17 17 16 16 16 16 16 16 17 17 18 18 18 19 20 21 22 23 24 25 26 26 27 27 27 27 27 28 28 28 27 27 26 26 27 27 27 27
32 32 32 32 32 33 33 33 34 34 35 35 35 34 34 34 34 34 33 33 32 31 30 29 29 29 31 32 30 26 23 22 24 27 29 30 28 26 24 25 25 25 24 24 23 22 21 20 19 18 18 18 18 18 18 18 19 19 19 20 20 20 21 22 22 23 24 25 26 26 27 27 27 27 27 28 28 27 26 26 26 26 26 26 26 26
36 35 34 34 34 33 32 32 31 32 32 32 32 33 33 33 34 33 33 32 31 31 30 29 28 28 29 29 29 27 24 21 23 27 30 33 32 30 28 28 28 28 28 27 26 24 23 21 20 20 19 19 19 18 18 19 19 19 20 21 21 22 22 22 23 23 24 25 25 26 26 26 27 27 28 28 27 26 25 25 26 26 26 26 26 26
37 36 35 33 31 30 29 29 29 29 29 30 30 31 32 32 33 33 33 32 32 31 30 30 30 30 31 32 33 31 27 24 24 27 30 34 35 34 31 31 31 31 31 30 28 26 24 22 21 21 20 20 19 19 18 18 18 18 19 20 20 21 22 22 22 23 23 24 25 25 26 26 27 27 28 28 27 25 25 25 25 25 25 25 25 26
38 36 33 31 29 28 28 27 27 26 27 27 29 30 32 33 33 33 33 32 32 32 32 32 32 32 33 35 35 33 30 27 26 28 31 34 36 36 35 33 33 33 33 32 29 26 24 23 23 22 22 21 20 19 18 17 17 17 17 18 19 19 20 21 21 22 22 23 24 25 25 26 27 27 28 27 26 25 24 25 25 25 25 25 25 26
38 36 34 30 27 25 24 24 24 24 25 27 30 32 33 33 33 33 33 33 33 33 33 32 33 34 34 35 35 35 32 29 28 29 32 35 37 38 37 35 34 34 34 32 29 26 25 25 24 24 23 22 21 20 19 18 17 16 16 16 17 18 18 19 20 21 22 23 24 24 25 25 26 27 27 26 25 24 24 24 24 24 24 24 25 25
37 34 29 23 21 21 22 23 23 23 24 27 31 33 33 33 34 34 34 34 34 34 35 35 35 35 35 36 37 37 35 34 32 32 33 34 37 39 38 36 34 34 34 32 29 27 26 26 26 25 24 23 22 21 19 18 17 17 16 16 16 17 17 18 19 20 21 22 23 24 24 25 25 26 26 24 23 23 23 23 23 23 23 24 24 25
31 27 22 20 20 22 23 24 24 24 25 27 30 32 33 33 34 35 35 36 36 37 37 37 36 36 36 37 38 38 38 37 37 36 34 34 37 39 37 34 33 32 34 32 30 28 27 27 27 27 26 25 24 22 20 19 18 17 16 16 16 16 16 17 18 19 20 22 22 23 23 24 24 24 24 23 22 22 22 22 22 23 23 23 24 24
26 23 21 20 21 22 23 24 24 25 26 27 29 30 31 32 33 34 35 36 36 37 37 37 36 35 35 36 38 38 38 38 37 36 35 35 36 36 35 32 31 31 33 32 30 29 29 28 28 28 28 27 25 23 21 19 18 17 16 16 15 15 16 17 17 19 20 21 21 22 22 22 23 23 22 22 21 21 21 21 22 22 23 23 24 25
24 22 20 20 21 22 22 23 23 24 25 26 27 28 29 30 30 30 30 31 32 33 34 34 34 34 34 35 36 36 37 36 35 34 33 32 33 33 33 31 30 30 31 31 30 29 29 29 29 29 29 28 26 24 21 19 17 16 15 15 15 15 15 16 17 18 19 19 20 20 20 20 21 21 21 20 20 20 20 21 22 22 23 23 24 25
23 21 20 20 21 22 22 23 24 24 25 26 27 28 28 29 30 29 29 28 27 26 27 28 30 30 30 31 32 32 32 32 32 32 32 31 31 32 32 30 29 29 30 30 30 29 29 30 31 31 31 30 27 24 21 18 17 15 15 14 14 14 14 15 16 17 17 18 18 18 18 19 19 19 20 20 20 20 21 21 22 22 23 23 24 25
25 24 24 24 23 24 24 26 27 28 28 29 29 29 29 30 31 31 31 29 26 24 24 24 25 26 27 27 28 29 29 29 29 29 29 30 31 31 31 29 28 27 28 28 28 28 29 30 32 33 33 31 28 24 20 18 16 15 14 13 13 13 13 14 14 15 15 16 16 16 17 17 18 18 19 20 20 21 21 21 22 22 23 23 25 27
28 28 27 26 25 25 27 29 30 31 31 31 31 30 30 30 30 30 31 30 29 28 27 26 26 25 25 26 27 28 28 27 26 25 25 27 29 30 30 28 26 26 25 26 27 28 29 31 33 34 34 32 28 24 20 18 16 14 13 12 12 12 12 13 13 14 14 15 15 15 16 16 17 18 18 19 20 20 21 21 21 21 22 23 25 28
27 26 26 25 26 28 30 32 33 33 33 32 32 31 31 30 29 28 29 30 30 30 29 29 27 25 24 25 26 26 27 26 25 24 23 25 28 30 28 26 25 23 23 23 25 27 29 31 33 34 33 30 27 23 20 17 16 14 13 13 13 13 13 13 13 14 14 15 15 15 16 16 17 17 18 19 19 20 20 21 21 21 22 23 26 27
21 22 23 26 28 31 33 34 35 34 34 33 32 32 31 30 28 27 27 27 27 28 29 29 28 27 25 24 23 23 23 22 21 20 20 23 26 27 25 24 22 21 20 21 22 24 28 31 32 31 30 28 25 23 20 18 17 16 16 15 15 15 14 14 14 15 15 15 15 15 15 16 16 17 17 18 19 19 20 20 20 21 22 24 26 27
21 23 26 29 31 33 34 35 35 35 34 33 32 32 30 29 27 25 24 24 25 26 27 28 29 29 28 25 21 19 18 16 13 11 12 16 20 22 21 20 20 20 19 20 20 21 24 27 28 28 26 24 23 23 22 21 20 19 19 18 18 17 16 16 16 16 15 15 15 15 15 15 15 16 16 17 18 19 19 19 20 20 22 24 25 26
29 31 33 34 35 35 35 35 35 35 34 33 32 31 29 27 25 24 22 22 23 24 25 26 28 29 29 28 25 23 23 20 16 12 11 14 17 19 20 20 21 21 22 22 22 21 21 22 24 26 26 24 24 25 25 24 23 22 22 21 20 19 18 17 17 17 16 15 15 14 14 14 14 15 15 16 17 18 19 19 19 20 22 23 23 24
35 36 36 36 36 35 35 35 35 34 33 32 31 29 28 26 25 23 22 22 22 22 23 24 25 26 28 28 29 29 30 29 27 24 21 20 21 23 23 23 24 24 25 25 24 24 24 25 27 28 28 27 26 26 26 26 25 24 24 23 22 21 19 18 17 17 15 14 14 13 13 13 13 14 15 15 16 17 18 18 19 19 20 20 21 22
34 35 35 35 34 34 34 33 33 33 32 31 30 29 27 26 26 25 24 23 23 22 23 23 23 24 25 26 27 29 30 31 30 28 24 21 21 23 24 24 25 25 26 25 25 26 27 29 30 30 28 29 28 27 27 27 27 25 24 24 23 22 20 18 17 15 14 13 13 13 12 12 13 13 14 15 15 16 17 17 18 18 18 18 18 19
32 33 33 33 33 32 32 32 32 31 31 30 29 29 28 27 27 27 26 26 25 24 24 23 23 23 23 23 24 26 27 29 28 26 23 22 21 23 24 24 24 24 24 24 24 25 27 29 30 30 29 27 26 26 26 27 27 26 25 24 23 22 19 17 15 14 13 13 12 12 12 12 12 13 13 14 15 15 16 16 17 17 17 17 17 18
31 31 31 31 31 31 31 31 31 30 30 30 30 29 29 28 28 28 28 27 27 26 25 24 23 22 22 21 22 23 25 26 26 25 24 24 24 25 26 27 26 25 24 24 24 24 24 25 26 26 25 24 23 23 24 25 26 26 25 25 24 22 19 17 15 13 13 13 12 12 12 12 12 13 13 13 14 14 15 16 16 16 16 16 17 18
29 30 30 30 30 30 31 31 30 30 30 29 29 29 29 28 28 28 28 27 27 26 25 24 24 23 22 21 21 22 23 24 24 23 23 23 24 26 27 29 30 29 28 27 26 25 24 23 23 22 22 22 22 22 22 24 25 26 26 26 25 23 20 17 15 13 13 13 13 12 12 12 12 13 13 13 13 14 14 15 15 15 16 16 16 17
28 29 30 30 30 31 30 30 30 29 28 28 28 28 27 27 27 26 26 26 25 25 24 24 23 23 22 22 22 22 22 23 22 22 22 22 23 25 26 28 30 30 30 30 29 28 27 26 24 23 23 23 23 23 23 24 25 25 26 27 26 23 20 17 15 14 13 13 13 12 12 12 12 13 12 12 13 13 14 14 14 15 15 16 16 17
28 29 30 30 30 30 30 29 28 27 27 26 26 26 25 25 25 24 24 23 23 23 22 22 22 23 23 23 23 23 23 23 23 23 22 22 23 23 24 26 27 28 29 29 29 28 28 28 27 25 24 24 25 25 26 26 26 26 26 26 26 24 21 17 15 13 13 13 13 13 13 13 12 12 12 12 12 12 13 13 14 14 15 15 16 16
28 29 30 30 30 29 28 27 26 26 25 25 24 24 23 23 22 22 22 21 21 20 20 21 21 22 22 23 23 24 24 24 23 22 21 21 21 21 22 23 24 25 26 26 26 26 27 27 27 27 27 27 26 26 26 26 26 26 26 25 24 23 20 16 14 13 14 14 14 13 13 12 12 11 10 10 10 11 12 12 13 13 14 15 15 16
28 28 29 29 29 28 27 26 25 24 23 23 22 22 21 21 20 20 20 19 19 18 18 19 19 20 21 22 23 23 23 23 22 21 20 19 18 18 18 19 20 21 22 23 24 24 25 25 26 27 28 28 28 28 28 27 27 26 26 25 23 21 17 15 14 14 14 14 14 13 12 11 10 9 9 9 9 10 11 11 12 12 13 13 14 15
27 27 28 28 27 26 25 24 23 21 20 20 20 20 20 20 19 19 19 18 18 17 17 17 17 18 20 21 22 22 21 21 20 19 18 17 16 16 16 16 17 18 19 21 22 23 23 24 25 26 27 28 29 29 29 29 29 28 26 24 21 18 16 15 14 14 14 14 13 12 11 10 9 8 8 8 8 9 10 10 11 11 11 12 13 14
28 27 26 25 24 24 23 22 20 19 19 19 20 20 20 19 18 17 17 17 17 17 16 16 17 18 20 21 21 21 20 19 19 18 18 18 17 17 17 17 17 17 18 20 23 24 24 24 24 25 26 27 29 30 30 30 29 28 26 22 18 16 17 16 15 14 13 13 12 11 10 9 8 8 8 8 9 9 9 10 10 11 11 11 12 12
26 24 23 22 22 21 20 20 19 19 19 20 21 20 18 17 15 15 16 16 16 17 17 17 18 19 21 22 22 22 20 19 18 17 17 18 17 17 17 18 18 17 16 17 18 20 21 21 22 23 24 26 28 30 30 29 28 26 23 19 16 16 17 16 15 14 13 12 11 10 9 9 9 10 10 9 9 9 9 9 10 10 10 11 11 11
21 21 20 20 20 20 20 19 19 19 19 19 19 18 16 15 14 14 15 16 16 17 17 18 19 21 22 23 23 23 22 20 18 17 16 15 15 15 15 15 16 16 16 16 16 17 18 19 20 21 22 23 25 27 27 27 25 22 19 17 16 16 16 15 14 13 13 12 11 10 10 10 11 11 11 10 10 9 9 9 10 10 10 10 10 11
18 19 19 19 19 19 18 18 17 17 17 17 17 16 15 14 14 14 15 16 17 18 18 19 20 21 22 23 23 23 23 22 20 18 16 15 14 13 13 13 13 13 14 15 15 16 17 17 18 18 20 21 22 23 23 23 21 19 17 16 16 16 16 15 14 13 12 11 11 11 11 11 11 12 12 11 10 10 10 10 10 10 10 10 10 10
17 18 19 18 18 17 17 16 16 16 17 17 17 17 16 16 16 17 17 17 18 19 20 20 20 21 21 21 21 22 22 22 22 21 19 17 15 14 13 12 12 12 12 13 14 15 16 15 14 15 17 19 20 20 20 19 18 18 17 16 15 15 15 14 13 12 11 11 11 11 11 11 11 12 12 11 11 10 10 9 9 10 10 10 9 9
17 17 17 17 16 16 15 15 15 16 18 18 18 18 17 17 17 18 18 18 18 19 19 19 19 19 19 19 19 19 21 22 22 22 20 18 15 13 12 11 10 10 10 11 12 13 13 13 12 12 14 17 19 20 19 18 17 16 15 14 13 13 13 12 12 11 11 11 11 11 11 11 11 11 11 11 11 10 9 9 9 9 9 9 9 8
15 16 15 15 15 15 15 15 16 16 17 18 18 18 18 17 17 17 17 17 17 17 17 17 17 17 17 17 18 19 20 22 22 22 21 19 16 13 11 9 9 9 9 9 10 10 11 11 11 10 10 13 16 18 18 17 16 14 13 12 12 12 12 12 11 11 11 11 11 11 11 11 11 11 11 11 10 10 9 9 8 8 8 8 7 7
14 13 13 13 13 14 14 15 15 16 16 17 18 18 19 18 17 16 16 16 16 15 15 15 15 16 17 18 19 20 21 23 24 24 23 20 18 15 12 10 10 9 10 9 9 10 10 11 11 10 9 9 11 13 14 14 14 13 12 11 11 11 11 11 11 10 10 10 11 11 11 11 11 11 11 10 10 10 9 8 8 7 7 7 6 6
12 12 11 11 12 12 13 13 14 15 15 16 17 18 18 18 18 17 16 16 16 15 15 15 15 16 17 19 19 20 21 23 24 24 24 22 19 17 15 13 12 12 12 12 12 12 13 13 13 11 10 8 8 9 10 11 12 12 11 11 10 10 10 9 9 9 9 10 10 10 10 10 10 10 10 10 10 9 9 8 7 6 6 6 5 5
Wind_Direction
291 292 293 294 293 292 292 293 293 293 293 294 293 293 291 289 287 286 285 284 285 285 285 286 286 286 285 284 283 282 281 280 279 278 278 277 277 276 276 276 275 275 274 274 274 274 274 274 275 275 275 275 275 275 274 273 272 270 268 265 265 265 267 268 269 269 269 269 270 270 270 271 271 272 272 272 273 273 273 273 272 271 270 270 270 272
294 295 295 297 297 297 298 301 303 304 304 304 303 301 298 296 294 292 291 290 290 290 290 290 290 289 288 286 285 284 283 282 282 281 280 280 279 279 278 277 276 275 274 273 272 272 272 273 274 274 275 275 275 275 275 274 272 271 269 266 265 266 268 269 270 270 270 271 271 271 271 271 272 272 272 272 272 272 273 273 274 273 271 270 270 272
295 295 296 297 297 298 299 303 307 309 309 309 308 307 305 303 302 302 302 302 301 300 299 298 297 295 294 293 292 291 291 290 289 287 286 285 284 283 282 281 279 278 276 275 273 272 272 272 273 274 274 275 275 275 275 274 274 272 270 269 267 267 268 269 270 270 271 271 271 271 271 271 271 271 271 272 272 272 272 273 273 274 273 272 272 273
294 295 296 298 298 298 299 303 307 310 311 311 311 311 310 310 310 311 312 311 310 308 306 305 304 302 301 301 300 300 299 298 296 293 290 288 286 285 284 283 282 281 280 278 276 275 274 273 273 273 273 274 274 274 274 274 274 273 272 270 269 268 268 268 269 269 269 269 269 269 269 269 269 269 270 270 271 271 271 271 272 272 273 273 273 273
293 294 297 298 299 299 301 305 308 310 312 312 312 313 313 313 313 314 315 315 313 310 309 307 307 306 305 305 305 305 304 302 299 296 293 290 287 286 284 283 282 281 280 279 278 277 275 275 274 273 273 272 272 272 272 271 271 271 270 269 269 269 268 268 268 268 268 268 268 268 268 269 269 269 270 270 270 271 271 271 271 272 272 273 273 273
294 295 297 298 297 298 301 304 306 308 309 310 311 312 313 313 314 314 314 313 312 310 308 307 307 307 306 306 307 307 306 304 301 297 294 291 288 286 284 282 281 280 280 279 278 277 276 275 275 274 274 273 272 271 270 268 267 267 266 266 267 268 269 269 269 269 269 270 270 270 271 271 271 271 271 271 271 271 271 271 271 271 272 272 273 274
295 296 297 296 296 297 299 301 303 304 304 304 307 309 312 313 312 312 311 311 310 309 308 307 306 306 306 307 308 308 307 305 302 299 296 293 290 287 285 282 281 280 279 278 277 276 276 275 275 276 276 276 275 274 273 271 270 268 267 266 267 268 269 270 270 270 271 271 272 272 272 273 272 272 272 272 272 271 271 271 271 271 272 272 273 274
293 294 294 293 294 296 296 297 299 301 300 300 301 303 307 309 309 309 308 308 307 307 306 306 306 306 307 308 309 309 308 306 304 302 300 297 294 292 289 286 284 282 279 278 277 276 275 275 276 276 277 277 277 276 276 275 274 273 272 271 270 270 271 271 271 271 271 272 272 272 273 273 272 272 272 271 271 270 270 270 270 271 271 272 273 274
290 291 291 291 291 291 292 294 296 298 299 297 296 296 297 300 302 303 303 304 304 304 304 304 305 306 307 308 309 308 308 307 305 304 303 302 300 298 296 293 290 287 283 281 279 278 277 277 277 277 277 276 276 275 275 274 274 273 273 272 271 271 271 270 270 271 271 271 271 271 272 272 272 271 271 270 270 270 270 271 271 271 272 273 274 276
287 288 289 290 290 289 289 291 295 299 300 298 296 295 293 294 294 296 298 300 302 304 303 302 302 304 307 308 308 308 307 306 306 305 305 304 303 301 300 297 294 290 287 284 282 281 279 279 278 278 278 277 275 275 274 273 272 272 272 271 270 269 268 268 268 269 270 270 270 270 271 271 271 270 270 270 270 270 271 272 273 274 275 277 278 279
286 287 288 289 290 290 289 291 295 299 300 298 296 296 295 293 292 291 292 296 300 303 302 301 301 302 303 306 307 307 306 306 306 306 306 305 303 302 300 298 295 291 289 286 284 281 280 279 279 279 278 278 277 276 276 276 275 275 274 273 272 270 269 267 267 267 267 268 268 268 268 268 268 268 269 269 270 271 272 274 275 277 278 280 281 281
285 286 286 286 287 288 289 291 295 297 297 294 292 291 292 293 293 291 289 291 295 299 300 300 300 300 300 301 303 304 304 304 305 306 307 306 304 303 302 301 299 295 292 289 285 282 281 280 280 279 278 278 277 278 278 278 278 278 278 276 275 273 271 269 268 267 266 266 266 266 266 266 266 267 268 269 271 272 274 275 277 278 280 281 281 282
283 283 284 284 285 286 287 289 291 293 291 289 286 285 287 291 292 290 288 289 291 294 296 297 298 299 299 299 298 299 301 302 304 306 306 305 304 305 306 305 305 303 301 297 293 290 289 287 285 283 282 281 280 279 279 279 279 279 279 278 277 275 274 272 270 268 267 266 266 266 266 266 266 268 269 271 273 274 276 278 279 281 281 282 282 282
279 280 280 280 282 284 286 287 288 288 287 287 286 285 286 289 290 288 287 288 291 293 294 294 295 297 299 298 297 298 299 301 303 304 304 303 303 305 306 306 306 305 304 302 300 299 299 297 295 293 290 289 286 284 283 281 280 279 279 278 277 276 274 273 271 270 268 268 267 267 267 268 269 270 272 274 276 277 279 281 282 283 282 282 281 281
279 279 278 278 280 283 285 286 287 288 288 289 290 290 290 290 290 288 286 286 289 292 292 292 294 296 298 298 297 297 298 300 301 301 301 301 302 303 304 303 303 303 302 301 300 300 301 300 299 298 297 295 293 290 287 284 281 279 278 277 277 276 275 274 272 271 270 269 268 268 269 270 271 273 275 276 278 280 281 282 283 282 282 281 281 280
286 285 282 281 281 283 284 285 286 287 289 291 292 291 290 289 289 288 286 285 287 289 287 287 290 293 296 297 298 297 296 297 298 298 300 300 300 300 301 301 300 300 300 300 299 298 298 297 296 296 296 295 293 290 287 284 280 278 277 276 276 275 275 274 273 272 271 270 270 270 271 272 273 274 276 277 278 280 281 282 282 282 282 282 282 281
288 286 283 282 282 283 284 285 286 287 290 292 292 292 290 289 288 287 285 285 284 284 282 282 282 285 290 295 296 295 293 292 293 295 297 297 298 299 298 298 297 298 299 299 298 298 298 297 296 295 295 294 292 289 286 283 280 278 276 275 274 274 274 273 273 273 272 272 271 272 272 273 274 275 275 277 279 280 281 281 282 282 283 284 284 284
283 282 281 280 280 282 284 286 288 290 291 292 292 292 292 291 289 287 285 283 281 280 279 279 278 279 282 286 290 291 289 286 287 290 292 293 295 296 296 295 294 295 296 297 298 298 298 298 299 299 299 298 295 292 288 285 282 279 277 276 274 274 273 273 273 273 273 272 272 273 273 273 274 274 275 277 279 280 280 281 282 283 284 285 285 285
281 280 278 278 280 284 288 291 293 294 294 294 294 295 294 294 292 289 286 283 281 279 278 277 277 277 279 281 286 290 289 284 282 283 285 288 292 294 293 292 292 293 294 294 295 296 297 299 301 304 304 303 300 297 293 289 286 283 280 278 276 274 273 272 272 272 272 272 272 272 272 273 274 274 276 277 278 280 280 281 282 284 284 285 285 285
280 278 277 280 285 290 293 294 295 296 297 299 300 300 298 296 294 291 287 285 283 282 280 278 277 278 280 283 288 291 289 284 280 278 280 285 288 291 291 290 290 290 291 292 292 293 295 299 303 306 307 306 303 299 295 291 288 286 283 281 278 276 273 272 271 270 270 270 271 271 272 273 274 275 277 278 279 280 280 282 283 284 284 285 285 285
279 278 280 284 289 293 295 297 298 300 302 304 303 301 298 296 294 291 290 288 287 285 283 279 278 281 283 285 288 291 290 284 277 275 278 282 285 287 288 288 288 289 289 290 290 292 295 299 304 307 309 309 306 301 296 292 289 287 286 284 281 277 274 271 269 268 268 268 269 270 272 273 274 276 277 279 279 280 280 282 283 284 284 285 286 287
285 283 284 287 292 298 301 304 305 306 307 306 303 299 296 294 292 291 290 289 287 285 283 282 282 284 286 287 289 291 290 284 278 275 275 275 279 283 285 286 286 286 287 288 290 293 297 301 305 309 311 311 308 303 297 292 289 288 287 286 283 279 275 271 268 266 266 267 268 270 271 273 275 276 278 279 279 280 281 282 283 284 284 285 286 287
292 288 289 293 299 304 306 308 309 310 309 307 303 301 299 296 293 291 289 287 285 283 283 283 285 287 287 288 290 290 289 284 280 275 270 267 271 278 282 283 282 282 283 286 289 294 298 302 305 309 312 312 309 304 298 293 289 288 288 287 285 281 276 271 267 265 265 266 268 270 272 274 275 277 278 279 279 280 280 282 283 284 284 285 285 285
289 286 290 297 302 305 306 306 307 308 308 307 305 304 303 302 299 295 291 288 285 283 282 282 282 282 283 286 287 287 287 283 278 272 265 263 267 273 278 279 277 277 280 284 289 293 298 301 305 308 310 310 308 304 298 293 290 289 289 288 285 281 276 271 267 265 265 266 268 270 272 274 276 277 278 279 279 280 281 282 283 283 283 283 283 283
286 285 289 295 299 301 302 303 304 305 305 304 303 303 304 305 304 302 298 295 290 285 281 277 275 275 279 282 283 284 285 283 277 270 263 261 264 271 276 276 274 274 277 283 289 294 297 301 304 306 307 308 306 303 298 293 290 289 289 288 285 280 275 270 267 265 265 266 268 270 273 275 276 278 279 280 280 281 281 282 282 282 283 283 283 283
288 287 290 295 297 298 298 299 299 300 302 301 300 300 300 301 302 303 304 305 302 296 288 280 277 277 281 282 282 283 285 284 279 273 267 264 265 270 275 275 273 273 277 284 290 294 297 300 302 303 304 305 304 302 297 293 291 289 289 287 284 279 274 270 267 265 265 266 268 271 273 275 277 278 279 280 280 279 279 280 281 282 283 283 283 283
293 293 295 297 298 297 296 297 299 301 302 302 302 302 301 300 299 300 302 304 306 306 304 299 295 293 292 289 287 287 289 287 283 279 274 270 269 269 272 272 271 272 276 283 290 294 296 297 299 301 302 303 302 300 296 293 291 290 288 287 284 279 275 271 267 265 265 266 268 271 274 276 277 278 279 279 280 279 279 280 280 281 283 283 283 282
294 293 294 295 296 296 298 300 303 304 304 304 304 303 303 302 301 299 297 296 296 298 300 304 305 304 301 296 294 294 294 290 285 281 277 272 267 265 267 268 268 270 274 282 288 292 294 294 296 298 300 301 300 298 294 293 291 290 289 288 285 282 278 274 271 268 267 268 270 272 275 277 278 279 280 280 281 282 282 282 282 283 284 284 283 284
290 289 290 292 295 298 301 303 303 303 303 302 302 301 301 302 301 299 296 294 293 292 293 294 297 300 302 302 300 298 294 289 284 279 272 266 261 260 261 262 264 267 274 281 287 290 291 292 294 297 298 299 298 296 294 293 292 291 291 290 288 286 283 279 276 273 272 272 273 274 276 278 279 280 281 282 284 284 285 284 284 284 285 284 284 287
289 289 292 296 299 301 303 303 302 302 301 300 299 299 299 300 300 299 296 294 292 291 290 289 289 291 295 300 302 300 295 291 286 277 266 259 256 256 257 259 262 267 273 279 284 287 289 291 293 295 296 296 296 295 294 294 294 293 293 292 291 289 286 284 281 279 277 276 276 276 276 277 278 279 281 284 285 286 285 285 284 284 283 284 286 290
298 299 301 303 303 303 302 301 300 299 299 298 298 297 297 298 298 298 296 294 292 290 289 288 287 286 287 291 296 298 294 293 289 276 261 257 256 256 258 261 265 269 272 274 277 281 286 289 291 292 292 292 292 292 293 294 294 294 294 293 292 290 288 287 284 282 280 279 277 276 275 274 275 278 281 283 285 285 285 284 283 283 284 286 289 292
301 303 304 304 303 301 300 298 297 296 296 296 296 296 295 296 296 296 295 294 293 291 290 289 287 286 285 285 285 285 283 280 277 273 271 270 269 268 268 269 270 272 274 273 272 272 277 281 284 286 286 285 285 287 290 291 292 292 292 292 291 290 289 287 285 283 281 280 278 275 272 272 273 276 280 282 284 284 283 282 282 283 286 289 291 293
300 301 301 301 299 298 296 294 293 293 293 294 294 294 293 293 293 293 293 293 293 292 291 290 289 289 287 286 284 282 280 277 275 275 278 281 280 279 278 277 277 277 278 277 274 271 270 272 276 280 279 278 278 281 285 287 288 288 288 289 289 289 288 286 284 282 281 279 276 272 270 270 272 276 279 281 282 282 281 280 281 283 286 290 292 294
298 298 297 297 296 294 293 292 291 291 292 292 292 292 292 291 291 292 292 292 292 291 290 289 289 290 290 290 288 286 283 281 279 279 280 281 281 281 282 281 281 281 282 280 277 273 270 269 270 271 270 270 272 276 280 284 285 285 285 286 286 287 286 284 282 280 279 277 274 271 269 270 273 276 279 281 281 280 279 278 279 281 284 289 292 294
298 297 296 296 295 294 293 292 292 292 292 291 291 292 291 291 291 291 291 291 291 290 288 286 285 286 287 289 290 288 287 284 283 281 280 277 273 273 276 277 279 280 282 280 277 272 268 266 264 262 261 263 266 271 277 281 283 284 283 283 284 284 284 281 279 277 276 274 273 271 271 271 274 277 280 281 281 280 278 277 278 280 283 286 290 292
299 298 297 297 296 296 295 295 295 294 293 292 292 292 292 292 292 291 291 291 290 288 286 283 281 280 280 282 284 286 286 286 286 285 283 279 275 272 271 271 271 273 276 278 278 274 269 266 263 260 259 260 265 271 276 279 281 281 281 282 282 283 282 279 276 274 274 274 273 273 273 274 276 279 282 283 282 280 278 277 277 280 282 285 288 291
300 299 298 298 298 298 298 298 297 297 296 295 294 293 293 293 292 292 291 290 289 287 285 282 278 275 274 275 277 280 283 285 287 287 286 283 280 276 273 271 269 268 269 272 275 275 274 271 269 268 265 265 267 271 274 276 278 278 279 280 281 281 280 277 275 274 274 275 275 275 276 277 280 282 284 284 282 279 277 276 277 279 282 285 288 290
301 300 300 300 300 301 301 301 300 300 299 298 297 296 295 294 294 293 292 291 290 288 285 282 278 274 272 271 273 276 280 283 286 287 287 284 281 278 275 273 272 270 269 269 271 273 273 273 273 272 271 270 270 271 272 273 274 274 275 278 279 278 276 275 274 275 276 277 278 278 278 280 283 285 286 285 282 279 276 276 276 279 282 285 288 291
303 303 303 303 304 304 304 303 303 302 301 300 298 297 296 296 295 294 294 293 292 290 287 284 280 277 275 273 274 276 279 282 284 285 285 284 281 278 276 274 273 272 271 270 270 271 272 272 271 270 270 271 272 272 272 272 271 271 272 273 273 273 272 272 273 275 277 279 280 280 281 282 285 287 288 285 282 279 277 276 278 281 284 288 290 292
305 305 305 305 305 304 304 303 303 302 301 300 299 298 297 297 297 298 298 297 295 293 290 287 285 282 280 279 278 278 279 281 282 283 283 282 280 278 276 274 273 272 272 271 270 270 271 271 271 271 270 269 270 270 270 270 269 269 268 266 266 268 270 271 273 275 277 278 279 280 282 284 285 286 286 284 281 279 278 278 281 284 288 292 295 298
305 304 303 303 303 303 302 302 302 301 301 301 300 300 300 302 304 306 306 304 302 299 297 295 292 289 286 283 282 280 280 280 280 280 280 280 279 278 276 275 275 275 274 273 272 271 271 271 271 271 270 270 269 269 269 268 266 264 261 259 261 267 271 271 271 273 276 278 279 281 282 283 284 284 283 280 278 278 279 281 283 287 291 295 299 303
301 300 300 300 301 301 301 301 302 302 303 304 305 307 308 310 312 313 313 313 312 311 310 309 306 301 296 291 287 284 283 282 281 281 281 281 281 281 281 280 281 282 283 282 279 276 274 273 272 272 271 271 270 268 266 265 263 259 255 256 261 267 270 269 270 272 275 278 280 281 281 281 281 281 280 278 276 276 278 281 284 287 291 296 300 303
298 298 299 300 300 301 301 303 305 308 311 312 312 312 313 315 316 316 317 318 318 318 318 318 315 312 308 304 299 296 293 291 288 287 286 286 287 286 286 285 285 285 287 287 284 281 279 278 276 275 275 274 271 267 262 259 255 252 251 254 259 263 264 266 270 275 277 279 279 279 279 279 280 281 280 277 274 273 275 278 282 285 289 294 298 302
298 299 300 301 302 304 306 309 312 314 315 313 312 313 317 319 320 320 320 320 321 321 321 321 320 318 316 314 312 311 309 305 302 298 295 293 291 290 288 286 284 282 282 283 283 282 281 280 280 280 280 278 273 266 258 252 248 247 250 255 260 261 261 264 270 275 277 277 277 276 277 279 282 282 280 277 273 271 271 273 276 280 285 290 295 299
300 302 304 306 309 311 314 315 315 315 314 312 314 318 324 328 329 328 326 325 324 323 324 324 323 320 317 316 317 317 318 318 316 313 308 303 299 295 291 288 284 281 279 277 276 277 278 280 283 285 285 281 273 263 253 246 244 247 254 260 264 265 266 267 269 271 272 273 272 272 274 277 278 279 278 276 274 270 267 267 270 274 279 285 290 295
306 308 309 311 313 313 313 314 315 316 317 319 324 329 334 337 338 335 332 330 329 327 327 327 323 318 314 314 316 318 320 324 326 326 323 318 314 309 302 295 289 282 278 275 273 272 273 277 284 288 288 280 269 258 250 245 246 252 260 265 267 266 265 265 265 265 265 266 267 267 268 270 272 273 274 274 271 267 263 263 266 270 274 279 286 292
309 309 310 311 311 312 314 318 322 326 328 330 332 335 338 340 339 337 335 333 331 330 329 326 322 317 314 315 317 319 321 324 328 331 331 327 322 317 311 302 292 283 277 275 273 272 272 274 281 287 285 276 265 257 253 253 256 261 266 268 267 264 263 262 261 260 259 258 259 260 261 263 266 269 271 270 267 264 261 260 263 267 271 277 283 288
306 307 310 312 315 319 324 330 333 334 332 330 331 333 336 338 337 336 334 332 332 330 328 324 321 319 318 319 322 325 326 327 329 331 333 330 325 318 310 302 292 284 279 277 275 275 275 273 275 280 283 278 269 264 263 264 266 269 270 269 265 262 260 258 257 256 254 253 253 253 255 257 260 263 264 265 264 261 257 255 257 262 269 274 280 285
304 306 312 318 322 326 330 334 335 332 328 327 329 331 333 333 332 330 329 329 330 329 327 326 325 325 326 327 330 332 333 333 333 334 335 335 332 326 317 308 301 295 290 285 281 278 276 274 271 271 275 278 274 270 269 269 270 270 269 265 261 258 256 255 254 254 253 252 251 251 251 253 255 257 259 261 261 258 253 250 251 256 263 269 276 279
306 311 317 323 326 327 329 331 330 328 327 327 329 330 329 327 324 322 322 323 325 326 327 329 330 331 332 333 335 336 336 335 335 335 337 338 337 333 327 321 317 313 308 301 295 291 289 287 282 275 267 267 268 267 266 265 265 264 262 259 257 256 256 256 256 256 255 254 252 252 252 253 255 256 257 257 256 253 249 246 244 248 254 260 267 270
312 317 321 324 325 326 327 328 328 327 327 328 328 326 323 320 318 317 318 321 323 325 325 326 329 332 333 334 335 335 334 334 333 334 335 338 337 333 329 325 322 320 316 311 307 304 302 299 295 290 281 268 260 259 260 259 259 259 258 257 256 256 257 258 258 258 257 256 255 254 253 253 253 254 253 252 250 247 244 239 235 237 243 246 250 252
Height
1435 1434 1434 1433 1433 1431 1429 1430 1430 1429 1427 1427 1427 1426 1425 1425 1425 1424 1424 1424 1423 1423 1422 1421 1420 1420 1419 1419 1418 1418 1417 1417 1416 1416 1415 1415 1414 1414 1413 1413 1412 1412 1411 1411 1411 1410 1410 1410 1409 1409 1409 1409 1409 1409 1409 1409 1409 1409 1409 1409 1410 1410 1410 1409 1409 1409 1409 1409 1409 1409 1409 1409 1409 1409 1409 1408 1408 1408 1408 1407 1407 1407 1407 1406 1406 1406
1434 1433 1432 1431 1430 1429 1427 1427 1427 1427 1426 1424 1424 1424 1424 1423 1423 1422 1422 1422 1421 1420 1420 1419 1418 1417 1417 1416 1416 1415 1415 1414 1414 1413 1413 1412 1412 1411 1411 1410 1410 1409 1409 1409 1408 1408 1408 1407 1407 1407 1407 1407 1407 1407 1407 1407 1407 1407 1407 1407 1407 1407 1407 1407 1407 1407 1406 1406 1406 1406 1406 1406 1406 1406 1406 1405 1405 1405 1405 1405 1404 1404 1404 1404 1404 1404
1432 1431 1430 1429 1429 1428 1426 1425 1425 1425 1424 1423 1423 1422 1422 1421 1421 1420 1420 1419 1419 1418 1417 1417 1416 1415 1414 1413 1413 1413 1412 1412 1411 1411 1410 1409 1409 1409 1408 1408 1407 1407 1406 1406 1406 1405 1405 1405 1405 1404 1404 1404 1404 1404 1404 1404 1404 1404 1404 1405 1405 1405 1405 1405 1404 1404 1404 1404 1404 1404 1404 1404 1404 1404 1403 1403 1403 1402 1402 1402 1402 1401 1401 1401 1401 1401
1431 1429 1428 1428 1427 1426 1425 1424 1423 1423 1423 1422 1421 1420 1420 1419 1419 1418 1417 1417 1416 1415 1414 1414 1413 1412 1411 1411 1410 1410 1410 1409 1409 1408 1408 1407 1407 1406 1406 1405 1405 1404 1404 1404 1403 1403 1403 1403 1402 1402 1402 1402 1402 1402 1402 1402 1402 1402 1402 1402 1402 1403 1402 1402 1402 1402 1402 1402 1402 1401 1401 1401 1401 1400 1400 1400 1400 1399 1399 1399 1399 1399 1399 1398 1398 1398
1430 1429 1427 1426 1425 1424 1423 1422 1422 1421 1420 1420 1419 1419 1418 1417 1416 1416 1415 1414 1414 1413 1412 1411 1411 1410 1409 1409 1408 1408 1408 1407 1407 1406 1405 1405 1404 1404 1403 1403 1402 1402 1402 1401 1401 1401 1400 1400 1400 1400 1400 1400 1399 1399 1399 1400 1400 1400 1400 1400 1400 1400 1400 1400 1400 1399 1399 1399 1399 1399 1398 1398 1398 1398 1398 1397 1397 1397 1397 1397 1397 1396 1396 1396 1396 1395
1428 1427 1426 1425 1424 1422 1421 1420 1420 1420 1419 1418 1417 1417 1416 1415 1414 1414 1413 1412 1412 1411 1410 1409 1409 1408 1407 1407 1406 1406 1405 1405 1404 1404 1403 1403 1402 1401 1401 1400 1400 1399 1399 1399 1399 1398 1398 1398 1398 1397 1397 1397 1397 1397 1397 1397 1397 1397 1397 1397 1397 1397 1397 1397 1397 1397 1397 1396 1396 1396 1395 1395 1395 1395 1395 1395 1394 1394 1394 1394 1394 1394 1394 1393 1393 1393
1426 1425 1425 1424 1422 1421 1420 1419 1419 1418 1418 1416 1415 1414 1414 1413 1412 1412 1411 1410 1409 1409 1408 1407 1406 1406 1405 1405 1404 1404 1403 1403 1402 1401 1401 1400 1399 1399 1399 1398 1398 1397 1397 1396 1396 1396 1396 1395 1395 1395 1395 1395 1395 1395 1395 1395 1395 1395 1395 1395 1395 1395 1395 1395 1394 1394 1394 1394 1394 1393 1393 1393 1393 1393 1392 1392 1392 1392 1392 1391 1391 1391 1391 1390 1390 1390
1424 1423 1423 1422 1421 1419 1418 1418 1417 1417 1416 1415 1414 1413 1412 1411 1410 1410 1409 1408 1408 1407 1406 1405 1404 1404 1403 1403 1402 1402 1401 1400 1399 1399 1398 1398 1397 1396 1396 1396 1395 1395 1394 1394 1394 1394 1394 1394 1393 1393 1393 1393 1393 1393 1393 1393 1393 1393 1393 1393 1393 1393 1393 1392 1392 1392 1392 1391 1391 1391 1391 1391 1390 1390 1390 1390 1390 1389 1389 1389 1389 1388 1388 1388 1387 1387
1423 1422 1421 1421 1420 1419 1417 1415 1415 1416 1415 1414 1414 1412 1411 1409 1409 1408 1407 1406 1406 1405 1404 1403 1402 1401 1400 1400 1400 1399 1399 1398 1397 1396 1396 1395 1394 1394 1394 1393 1393 1393 1392 1392 1392 1392 1391 1391 1391 1391 1391 1391 1391 1391 1391 1391 1391 1391 1391 1390 1390 1390 1390 1390 1390 1389 1389 1389 1389 1389 1389 1389 1388 1388 1388 1388 1387 1387 1387 1386 1386 1385 1385 1385 1384 1384
1422 1421 1419 1418 1418 1417 1416 1413 1412 1413 1414 1413 1412 1411 1410 1409 1407 1406 1405 1404 1403 1403 1403 1401 1400 1399 1398 1398 1398 1397 1396 1396 1395 1394 1394 1393 1392 1392 1391 1391 1391 1390 1390 1390 1390 1390 1389 1389 1389 1389 1389 1389 1389 1389 1388 1388 1388 1388 1388 1388 1388 1388 1387 1387 1387 1387 1387 1387 1387 1387 1386 1386 1386 1386 1385 1385 1385 1384 1384 1384 1383 1383 1382 1382 1382 1381
1420 1419 1418 1416 1415 1415 1414 1412 1410 1410 1411 1411 1409 1408 1408 1407 1406 1405 1403 1402 1400 1400 1400 1399 1399 1397 1396 1395 1395 1395 1394 1394 1393 1392 1392 1391 1391 1390 1389 1389 1389 1389 1388 1388 1388 1388 1388 1387 1387 1387 1387 1387 1386 1386 1386 1386 1386 1385 1385 1385 1385 1385 1385 1384 1384 1384 1384 1384 1384 1384 1384 1384 1384 1383 1383 1383 1382 1382 1381 1381 1381 1380 1380 1379 1379 1379
1418 1416 1415 1414 1414 1413 1412 1410 1409 1409 1409 1409 1408 1406 1405 1404 1404 1404 1402 1400 1399 1398 1398 1397 1397 1396 1395 1394 1393 1393 1392 1392 1391 1390 1389 1389 1389 1388 1388 1387 1387 1387 1387 1386 1386 1386 1386 1386 1385 1385 1385 1385 1384 1384 1384 1384 1384 1384 1383 1383 1383 1382 1382 1382 1382 1382 1382 1381 1381 1381 1381 1381 1381 1380 1380 1380 1380 1379 1379 1379 1378 1378 1377 1377 1376 1376
1416 1415 1414 1413 1412 1411 1410 1409 1409 1408 1408 1407 1406 1404 1403 1402 1402 1402 1400 1399 1397 1397 1396 1395 1394 1393 1393 1392 1392 1391 1390 1390 1389 1389 1388 1387 1387 1386 1386 1386 1385 1385 1385 1384 1384 1384 1384 1384 1384 1384 1383 1383 1383 1383 1383 1382 1382 1382 1381 1381 1380 1380 1380 1380 1379 1379 1379 1379 1379 1379 1379 1378 1378 1378 1378 1378 1377 1377 1377 1376 1376 1375 1375 1374 1374 1374
1414 1413 1412 1411 1409 1409 1408 1408 1407 1406 1405 1405 1404 1403 1402 1401 1401 1400 1399 1397 1396 1395 1395 1394 1393 1391 1390 1390 1390 1389 1389 1388 1387 1386 1386 1385 1385 1385 1385 1384 1384 1384 1383 1383 1382 1382 1382 1382 1382 1382 1382 1382 1381 1381 1381 1380 1380 1380 1379 1379 1379 1378 1378 1378 1378 1377 1377 1377 1377 1376 1376 1376 1376 1375 1375 1375 1375 1374 1374 1374 1373 1373 1373 1372 1372 1371
1412 1411 1410 1409 1408 1407 1407 1406 1405 1404 1403 1403 1402 1401 1400 1399 1399 1398 1397 1395 1394 1394 1393 1392 1391 1389 1388 1387 1387 1388 1387 1386 1385 1384 1384 1383 1384 1384 1384 1383 1382 1382 1382 1381 1381 1380 1381 1380 1380 1380 1380 1380 1380 1379 1379 1379 1378 1378 1378 1377 1377 1377 1376 1376 1376 1375 1375 1375 1374 1374 1374 1374 1374 1373 1373 1373 1373 1372 1372 1372 1371 1371 1370 1370 1369 1369
1411 1410 1409 1407 1406 1405 1405 1404 1404 1402 1401 1400 1400 1399 1399 1397 1397 1396 1395 1394 1393 1392 1392 1391 1389 1387 1385 1385 1385 1386 1386 1385 1384 1383 1382 1381 1381 1382 1382 1382 1381 1380 1380 1379 1379 1379 1379 1379 1379 1378 1378 1378 1378 1378 1377 1377 1376 1376 1376 1375 1375 1375 1374 1374 1374 1373 1373 1373 1372 1372 1372 1372 1371 1371 1371 1371 1370 1370 1370 1369 1369 1369 1368 1368 1367 1367
1410 1409 1407 1406 1404 1403 1403 1403 1402 1401 1400 1399 1398 1398 1397 1396 1394 1394 1393 1392 1391 1391 1390 1389 1389 1387 1384 1382 1383 1384 1384 1384 1383 1381 1380 1379 1379 1379 1380 1380 1379 1378 1377 1377 1377 1377 1377 1377 1376 1376 1376 1376 1376 1375 1375 1375 1374 1374 1374 1373 1373 1373 1372 1372 1371 1371 1371 1370 1370 1370 1370 1369 1369 1369 1369 1369 1368 1368 1368 1367 1367 1366 1366 1365 1365 1364
1407 1406 1405 1404 1402 1401 1401 1401 1400 1399 1399 1398 1397 1396 1395 1394 1393 1392 1391 1390 1390 1389 1388 1388 1387 1386 1384 1381 1381 1382 1383 1383 1381 1380 1379 1377 1376 1377 1378 1378 1377 1376 1375 1375 1375 1375 1375 1375 1374 1374 1374 1374 1373 1373 1373 1372 1372 1372 1371 1371 1370 1370 1370 1369 1369 1369 1369 1368 1368 1368 1368 1367 1367 1367 1367 1366 1366 1366 1365 1365 1365 1364 1364 1363 1363 1363
1404 1403 1402 1401 1400 1400 1399 1399 1399 1398 1397 1396 1395 1394 1393 1392 1391 1390 1389 1389 1388 1387 1386 1386 1384 1384 1382 1380 1379 1379 1381 1381 1380 1379 1377 1375 1374 1374 1375 1375 1374 1374 1373 1372 1372 1373 1373 1373 1372 1372 1372 1371 1371 1371 1370 1370 1370 1369 1369 1369 1368 1368 1368 1367 1367 1367 1367 1366 1366 1366 1365 1365 1365 1364 1364 1364 1364 1364 1364 1363 1363 1362 1362 1361 1361 1360
1401 1400 1400 1400 1399 1399 1398 1397 1396 1396 1395 1394 1393 1392 1391 1389 1389 1388 1387 1386 1386 1385 1384 1384 1382 1381 1379 1378 1377 1377 1379 1379 1378 1377 1375 1373 1371 1371 1372 1372 1372 1371 1370 1369 1370 1370 1371 1371 1370 1370 1369 1369 1369 1369 1368 1368 1368 1367 1367 1366 1366 1366 1365 1365 1365 1365 1364 1364 1364 1364 1363 1363 1363 1362 1362 1362 1362 1362 1361 1361 1360 1360 1360 1359 1359 1358
1399 1398 1398 1398 1398 1397 1395 1395 1394 1394 1393 1393 1391 1390 1389 1388 1387 1386 1385 1384 1383 1383 1382 1381 1379 1378 1377 1376 1375 1374 1376 1377 1376 1374 1373 1371 1369 1369 1369 1369 1369 1368 1367 1366 1367 1368 1369 1368 1368 1368 1367 1367 1366 1366 1366 1366 1365 1365 1365 1364 1364 1364 1363 1363 1363 1363 1362 1362 1362 1361 1361 1361 1361 1360 1360 1360 1359 1359 1359 1359 1359 1358 1358 1357 1357 1356
1397 1395 1396 1396 1396 1394 1393 1392 1392 1392 1391 1391 1390 1388 1387 1386 1384 1383 1382 1382 1381 1379 1378 1377 1376 1375 1374 1374 1372 1372 1374 1374 1373 1372 1371 1369 1367 1366 1367 1368 1367 1366 1364 1364 1364 1365 1366 1366 1365 1365 1364 1364 1364 1364 1364 1363 1363 1363 1363 1362 1362 1362 1361 1361 1361 1360 1360 1360 1359 1359 1359 1359 1359 1358 1358 1358 1358 1358 1357 1357 1357 1356 1356 1355 1355 1354
1394 1394 1393 1393 1393 1392 1391 1390 1389 1389 1389 1389 1388 1386 1385 1384 1382 1380 1379 1378 1377 1376 1374 1373 1373 1372 1372 1371 1370 1369 1370 1370 1370 1369 1369 1366 1364 1364 1365 1366 1365 1364 1362 1361 1362 1363 1363 1363 1362 1362 1362 1362 1362 1361 1361 1361 1361 1361 1360 1360 1360 1359 1359 1359 1359 1359 1358 1358 1358 1357 1357 1357 1357 1356 1356 1356 1356 1355 1355 1355 1355 1354 1354 1354 1353 1352
1392 1392 1391 1391 1390 1390 1389 1389 1388 1388 1387 1387 1386 1384 1383 1382 1380 1378 1377 1375 1374 1373 1371 1370 1370 1369 1368 1368 1367 1367 1367 1368 1368 1367 1365 1363 1362 1362 1363 1364 1364 1362 1360 1359 1360 1360 1360 1360 1359 1359 1359 1359 1359 1359 1359 1359 1359 1359 1358 1358 1358 1358 1357 1357 1357 1356 1356 1356 1356 1355 1355 1355 1355 1354 1354 1354 1354 1354 1353 1353 1353 1352 1352 1351 1351 1350
1391 1390 1390 1390 1389 1389 1388 1388 1387 1386 1386 1385 1384 1383 1382 1380 1379 1377 1375 1374 1372 1371 1369 1369 1368 1366 1365 1366 1365 1364 1364 1365 1365 1365 1364 1362 1360 1360 1361 1362 1361 1360 1358 1358 1358 1358 1358 1357 1357 1357 1357 1357 1357 1357 1357 1357 1357 1356 1356 1356 1356 1355 1355 1355 1355 1354 1354 1354 1354 1354 1354 1353 1353 1353 1352 1352 1352 1352 1351 1351 1351 1350 1350 1349 1348 1348
1390 1389 1389 1389 1388 1388 1387 1386 1386 1385 1384 1383 1382 1381 1379 1378 1376 1375 1374 1373 1371 1370 1369 1367 1365 1364 1364 1364 1363 1362 1362 1363 1363 1363 1362 1361 1359 1358 1358 1359 1359 1358 1357 1356 1356 1356 1355 1354 1354 1354 1354 1355 1355 1355 1355 1355 1354 1354 1354 1354 1354 1354 1354 1353 1353 1353 1353 1352 1352 1352 1352 1351 1351 1351 1350 1350 1350 1349 1349 1349 1349 1348 1348 1347 1346 1345
1389 1388 1387 1387 1386 1386 1385 1384 1384 1383 1382 1381 1380 1379 1378 1376 1374 1373 1372 1371 1370 1369 1368 1366 1364 1363 1363 1362 1361 1360 1360 1360 1360 1360 1359 1359 1358 1357 1356 1357 1357 1356 1355 1354 1354 1354 1353 1352 1352 1352 1352 1352 1353 1353 1353 1353 1353 1352 1352 1352 1352 1352 1352 1352 1351 1351 1351 1351 1350 1350 1350 1349 1349 1349 1349 1348 1348 1348 1347 1347 1346 1346 1345 1344 1343 1342
1386 1385 1385 1384 1384 1384 1383 1382 1381 1380 1379 1379 1378 1377 1376 1374 1373 1371 1369 1369 1368 1367 1366 1365 1363 1362 1361 1360 1359 1358 1358 1358 1358 1358 1358 1358 1356 1354 1354 1354 1355 1354 1354 1353 1352 1351 1351 1350 1349 1349 1349 1350 1350 1351 1351 1351 1351 1351 1350 1350 1350 1350 1350 1350 1350 1350 1349 1349 1349 1349 1348 1348 1348 1347 1347 1346 1346 1346 1345 1345 1344 1344 1343 1342 1341 1339
1383 1383 1382 1382 1382 1381 1380 1379 1379 1378 1377 1376 1375 1375 1374 1372 1371 1369 1368 1367 1366 1365 1364 1363 1362 1361 1360 1359 1357 1356 1356 1355 1356 1356 1356 1355 1353 1352 1352 1353 1353 1353 1352 1351 1350 1349 1349 1348 1348 1347 1347 1348 1348 1349 1349 1349 1349 1349 1349 1349 1349 1349 1349 1349 1349 1348 1348 1348 1348 1347 1347 1346 1346 1345 1345 1345 1344 1344 1343 1343 1343 1342 1341 1340 1339 1338
1381 1380 1380 1379 1379 1379 1378 1377 1376 1375 1374 1374 1373 1372 1371 1370 1369 1368 1366 1365 1364 1363 1362 1360 1360 1359 1359 1358 1356 1355 1354 1354 1354 1354 1354 1353 1351 1350 1350 1351 1351 1351 1351 1350 1349 1347 1345 1345 1345 1345 1345 1345 1346 1346 1346 1347 1347 1347 1347 1347 1347 1347 1347 1347 1347 1347 1346 1346 1346 1345 1345 1345 1344 1344 1344 1343 1343 1342 1342 1341 1341 1340 1339 1338 1337 1336
1379 1378 1377 1377 1376 1376 1375 1374 1373 1372 1371 1370 1370 1369 1368 1368 1367 1365 1364 1363 1362 1361 1360 1359 1358 1357 1357 1356 1356 1355 1354 1353 1354 1353 1353 1352 1351 1350 1350 1350 1349 1349 1349 1349 1349 1346 1344 1343 1343 1344 1344 1344 1344 1344 1344 1344 1345 1345 1345 1345 1345 1345 1346 1345 1345 1345 1344 1344 1344 1344 1344 1343 1343 1343 1342 1342 1341 1341 1340 1340 1339 1338 1337 1336 1335 1334
1376 1376 1375 1374 1374 1373 1372 1371 1370 1369 1368 1368 1367 1366 1366 1365 1364 1363 1362 1361 1360 1359 1358 1357 1355 1355 1354 1354 1354 1353 1352 1352 1352 1353 1352 1351 1350 1349 1349 1348 1348 1347 1347 1347 1347 1346 1344 1342 1341 1342 1342 1342 1342 1342 1342 1342 1343 1343 1343 1343 1343 1344 1344 1344 1344 1343 1343 1343 1342 1342 1342 1342 1341 1341 1341 1340 1340 1339 1339 1338 1338 1337 1335 1334 1334 1333
1374 1374 1373 1372 1371 1370 1369 1368 1367 1366 1365 1365 1364 1364 1363 1362 1362 1361 1360 1359 1358 1357 1356 1355 1354 1353 1352 1351 1351 1350 1349 1349 1350 1351 1351 1350 1348 1347 1346 1346 1346 1345 1345 1345 1344 1344 1343 1341 1340 1339 1340 1340 1340 1340 1340 1340 1341 1341 1341 1341 1341 1342 1342 1342 1342 1342 1341 1341 1341 1340 1340 1340 1340 1339 1339 1339 1338 1338 1337 1337 1336 1335 1334 1334 1333 1332
1372 1371 1370 1369 1368 1367 1366 1365 1364 1364 1363 1362 1361 1361 1360 1359 1359 1358 1358 1357 1356 1355 1354 1353 1352 1351 1350 1349 1348 1347 1346 1347 1348 1348 1349 1348 1347 1345 1344 1344 1343 1343 1342 1342 1342 1341 1340 1339 1338 1338 1338 1337 1337 1338 1338 1338 1339 1339 1339 1339 1339 1340 1340 1340 1340 1340 1339 1339 1339 1339 1339 1339 1339 1338 1338 1337 1337 1336 1336 1335 1335 1334 1334 1333 1332 1331
1369 1368 1367 1366 1365 1364 1363 1363 1362 1361 1360 1359 1359 1358 1357 1357 1356 1355 1355 1354 1354 1353 1352 1351 1350 1349 1348 1347 1346 1344 1344 1344 1344 1345 1346 1346 1345 1344 1343 1342 1341 1341 1341 1340 1339 1339 1338 1336 1336 1336 1336 1335 1335 1335 1336 1336 1336 1337 1337 1337 1338 1338 1339 1339 1339 1338 1338 1338 1338 1337 1337 1337 1337 1337 1336 1336 1335 1335 1334 1334 1334 1333 1333 1332 1331 1330
1367 1365 1364 1364 1363 1362 1361 1360 1359 1359 1358 1357 1356 1355 1355 1354 1353 1353 1352 1351 1351 1350 1349 1349 1348 1347 1346 1345 1344 1343 1342 1341 1342 1343 1343 1342 1342 1341 1340 1339 1339 1339 1339 1338 1338 1337 1336 1335 1334 1334 1334 1334 1334 1333 1334 1334 1334 1335 1335 1335 1336 1336 1337 1337 1337 1337 1336 1336 1336 1336 1336 1336 1335 1335 1335 1334 1334 1334 1333 1333 1333 1332 1331 1331 1330 1329
1364 1363 1362 1361 1361 1359 1359 1357 1356 1356 1355 1354 1353 1353 1352 1351 1350 1349 1349 1348 1348 1347 1346 1346 1345 1344 1344 1343 1342 1341 1340 1339 1339 1340 1340 1339 1339 1338 1337 1336 1336 1336 1337 1336 1336 1335 1335 1334 1334 1333 1333 1332 1332 1332 1332 1332 1333 1333 1333 1333 1334 1334 1335 1335 1335 1335 1335 1334 1334 1334 1334 1334 1334 1334 1334 1333 1333 1332 1332 1332 1331 1331 1330 1329 1329 1328
1362 1361 1360 1359 1358 1357 1356 1355 1354 1353 1352 1351 1350 1349 1349 1348 1348 1347 1346 1345 1344 1344 1343 1343 1342 1342 1341 1340 1340 1339 1339 1338 1338 1338 1337 1337 1336 1336 1335 1334 1333 1334 1334 1334 1334 1334 1333 1333 1332 1331 1330 1330 1330 1330 1330 1331 1331 1331 1331 1331 1332 1333 1333 1334 1334 1333 1333 1333 1333 1333 1333 1333 1332 1332 1332 1332 1331 1331 1330 1330 1330 1330 1329 1329 1328 1327
1360 1359 1358 1357 1356 1355 1354 1353 1352 1351 1350 1349 1348 1347 1347 1346 1345 1344 1344 1343 1342 1341 1341 1340 1339 1339 1339 1338 1338 1337 1337 1336 1336 1335 1335 1334 1334 1333 1333 1332 1331 1330 1331 1331 1331 1331 1331 1330 1330 1329 1329 1328 1328 1328 1328 1329 1329 1329 1329 1330 1330 1330 1331 1332 1332 1332 1331 1331 1331 1331 1331 1331 1331 1331 1330 1330 1330 1329 1329 1329 1329 1329 1328 1327 1327 1326
1358 1357 1356 1355 1354 1353 1352 1351 1350 1349 1348 1347 1346 1345 1344 1344 1343 1342 1341 1340 1340 1339 1339 1338 1337 1336 1336 1335 1335 1335 1334 1334 1334 1333 1333 1332 1332 1331 1330 1329 1329 1329 1329 1329 1329 1329 1328 1328 1327 1327 1327 1326 1326 1326 1326 1326 1327 1327 1328 1328 1328 1328 1329 1330 1330 1330 1330 1330 1329 1329 1329 1329 1329 1329 1329 1329 1329 1328 1328 1328 1328 1327 1327 1326 1325 1324
1356 1355 1354 1353 1352 1351 1350 1349 1348 1347 1346 1345 1344 1344 1343 1342 1341 1340 1339 1338 1337 1337 1336 1335 1335 1334 1333 1333 1333 1332 1332 1332 1331 1331 1331 1330 1329 1329 1328 1328 1327 1327 1327 1326 1326 1326 1326 1325 1325 1324 1324 1324 1324 1324 1324 1324 1324 1325 1325 1326 1326 1327 1327 1328 1328 1328 1328 1328 1328 1328 1328 1328 1328 1328 1328 1328 1328 1327 1327 1327 1326 1326 1326 1325 1324 1324
1355 1354 1352 1351 1350 1349 1348 1348 1347 1346 1345 1344 1343 1342 1341 1340 1339 1338 1337 1336 1335 1335 1334 1334 1333 1332 1331 1330 1330 1330 1329 1329 1329 1329 1329 1328 1328 1327 1326 1326 1325 1325 1325 1324 1324 1323 1323 1323 1323 1323 1322 1322 1322 1322 1322 1322 1322 1323 1324 1324 1324 1325 1326 1326 1326 1326 1327 1327 1327 1327 1327 1327 1327 1327 1327 1327 1326 1326 1326 1326 1325 1325 1325 1324 1324 1323
1353 1352 1351 1349 1349 1348 1347 1346 1345 1344 1343 1342 1341 1340 1340 1339 1338 1337 1336 1335 1334 1334 1333 1332 1331 1330 1329 1328 1327 1327 1327 1327 1327 1327 1326 1326 1325 1325 1324 1324 1324 1323 1323 1323 1322 1321 1321 1321 1321 1321 1320 1320 1320 1320 1320 1320 1320 1321 1321 1322 1323 1324 1324 1324 1324 1325 1325 1325 1325 1325 1325 1325 1325 1325 1325 1325 1325 1325 1325 1325 1325 1324 1324 1324 1323 1322
1351 1350 1349 1348 1347 1346 1345 1344 1344 1343 1342 1341 1340 1339 1339 1338 1337 1336 1335 1334 1334 1333 1332 1331 1330 1329 1328 1326 1325 1325 1325 1325 1325 1324 1324 1324 1323 1323 1322 1322 1321 1321 1321 1321 1320 1320 1319 1319 1319 1318 1318 1318 1318 1318 1318 1318 1319 1319 1320 1321 1322 1322 1322 1322 1323 1324 1324 1324 1324 1324 1324 1324 1324 1324 1324 1324 1324 1324 1324 1324 1324 1324 1323 1323 1322 1322
1349 1349 1348 1347 1346 1345 1344 1343 1342 1342 1341 1340 1339 1338 1338 1337 1336 1336 1335 1334 1333 1332 1331 1330 1329 1328 1327 1325 1324 1324 1323 1322 1322 1322 1322 1321 1321 1321 1320 1320 1319 1319 1319 1319 1318 1318 1318 1317 1317 1316 1316 1316 1316 1316 1316 1316 1317 1318 1319 1319 1320 1320 1320 1321 1322 1322 1322 1322 1322 1323 1323 1323 1323 1323 1323 1323 1323 1323 1323 1323 1323 1323 1323 1322 1322 1321
1348 1347 1346 1345 1344 1344 1343 1342 1341 1340 1339 1339 1338 1337 1336 1336 1335 1335 1334 1333 1332 1331 1330 1329 1329 1327 1326 1325 1324 1323 1322 1321 1320 1319 1319 1319 1319 1319 1318 1318 1318 1317 1317 1317 1316 1316 1316 1316 1315 1315 1314 1314 1314 1314 1315 1315 1316 1317 1318 1318 1318 1319 1319 1320 1320 1321 1321 1321 1321 1321 1321 1322 1322 1322 1322 1322 1322 1322 1322 1322 1322 1322 1322 1322 1321 1321
1347 1346 1345 1344 1344 1343 1342 1341 1340 1339 1339 1338 1337 1336 1335 1335 1334 1334 1333 1332 1331 1330 1329 1328 1328 1327 1325 1324 1323 1322 1321 1320 1319 1318 1317 1317 1317 1316 1316 1316 1315 1315 1315 1315 1314 1314 1314 1314 1314 1314 1314 1314 1314 1314 1314 1315 1315 1316 1316 1316 1317 1318 1318 1318 1319 1319 1319 1320 1320 1320 1320 1320 1320 1320 1320 1321 1321 1321 1321 1321 1321 1321 1321 1321 1321 1320
1346 1345 1344 1344 1343 1342 1341 1340 1339 1339 1338 1337 1336 1335 1334 1334 1334 1333 1332 1331 1330 1329 1329 1328 1327 1326 1325 1324 1323 1322 1321 1319 1318 1317 1316 1316 1315 1315 1314 1314 1314 1313 1313 1313 1313 1313 1313 1313 1313 1313 1313 1313 1313 1313 1313 1314 1314 1314 1315 1315 1316 1316 1317 1317 1317 1318 1318 1318 1319 1319 1319 1319 1319 1319 1319 1319 1319 1320 1320 1320 1320 1320 1320 1320 1320 1320
1345 1344 1343 1343 1342 1341 1340 1339 1339 1338 1337 1336 1335 1334 1334 1333 1333 1332 1331 1330 1329 1329 1328 1327 1326 1325 1324 1323 1322 1321 1320 1319 1317 1316 1315 1314 1314 1313 1313 1312 1312 1312 1312 1311 1311 1311 1311 1311 1311 1311 1311 1311 1311 1312 1312 1312 1313 1313 1314 1314 1314 1315 1315 1316 1316 1316 1317 1317 1317 1317 1317 1318 1318 1318 1318 1318 1319 1319 1319 1319 1320 1320 1320 1320 1320 1319
1344 1343 1343 1342 1341 1340 1340 1339 1338 1338 1337 1336 1334 1334 1333 1332 1332 1331 1330 1329 1329 1328 1327 1326 1325 1324 1322 1321 1320 1319 1319 1317 1316 1315 1314 1313 1312 1312 1312 1311 1311 1310 1310 1310 1310 1310 1310 1310 1309 1309 1310 1310 1310 1311 1311 1311 1312 1312 1313 1313 1313 1314 1314 1314 1315 1315 1315 1315 1316 1316 1316 1316 1316 1317 1317 1317 1317 1318 1318 1319 1319 1319 1319 1319 1319 1319
1343 1342 1342 1341 1340 1340 1339 1339 1338 1337 1336 1335 1334 1333 1332 1331 1330 1330 1329 1328 1327 1326 1325 1324 1324 1323 1322 1320 1319 1319 1318 1317 1315 1314 1313 1312 1312 1311 1310 1310 1310 1309 1309 1309 1309 1309 1309 1309 1308 1308 1309 1309 1309 1309 1310 1310 1311 1311 1312 1312 1312 1313 1313 1313 1314 1314 1314 1314 1314 1314 1315 1315 1315 1315 1316 1316 1316 1317 1317 1318 1318 1319 1319 1319 1319 1319